Overview Statistics Trail Chart Weather Telemetry Raw packets
 

This is the latest recevied weather packets stored in our database for station/object KN1OBI-13. If no packets are shown the sender has not sent any weather packets the latest 10 day(s).

<< 32 33 34 35 36 37 38 >>
Time Temp. Humidity Pressure Rain* Wind** Luminosity Snow
1788132391 22.22° C 74% 996.1 hPa 0 mm - - -
1788131791 22.78° C 72% 996.1 hPa 0 mm - - -
1788131191 22.78° C 72% 996.2 hPa 0 mm - - -
1788130591 22.78° C 72% 996.4 hPa 0 mm - - -
1788129991 22.78° C 73% 996.5 hPa 0 mm - - -
1788129391 23.33° C 70% 996.5 hPa 0 mm - - -
1788128791 23.33° C 69% 996.4 hPa 0 mm - - -
1788128191 23.33° C 69% 996.5 hPa 0 mm - - -
1788127591 23.33° C 68% 996.3 hPa 0 mm - - -
1788126991 23.89° C 68% 996.7 hPa 0 mm - - -
1788126391 23.89° C 68% 996.5 hPa 0 mm - - -
1788125791 23.33° C 68% 996.5 hPa 0 mm - - -
1788125191 23.89° C 68% 996.7 hPa 0 mm - - -
1788124591 23.89° C 67% 996.5 hPa 0 mm - - -
1788123991 23.89° C 66% 996.7 hPa 0 mm - - -
1788123391 23.89° C 64% 996.7 hPa 0 mm - - -
1788122791 24.44° C 64% 996.6 hPa 0 mm - - -
1788122191 24.44° C 62% 996.6 hPa 0 mm - - -
1788121591 25° C 61% 996.7 hPa 0 mm - - -
1788120991 25° C 61% 996.8 hPa 0 mm - - -
1788120391 24.44° C 61% 997.1 hPa 0 mm - - -
1788119791 24.44° C 63% 997 hPa 0 mm - - -
1788119191 24.44° C 62% 997.2 hPa 0 mm - - -
1788118591 23.89° C 61% 997.3 hPa 0 mm - - -
1788117991 24.44° C 60% 997.3 hPa 0 mm - - -

* Rain latest hour (hover to see other rain measurements)
** Current wind speed in m/s (hover to see current wind gust speed)